TimeEST,TemperatureF,Dew PointF,Humidity,Sea Level PressureIn,VisibilityMPH,Wind Direction,Wind SpeedMPH,Gust SpeedMPH,PrecipitationIn,Events,Conditions,WindDirDegrees,DateUTC
12:12 AM,16.0,12.9,88,30.42,10.0,East,4.6,-,N/A,,Overcast,100,2013-02-22 05:12:00
12:19 AM,16.0,12.9,88,30.42,10.0,East,4.6,-,N/A,,Overcast,100,2013-02-22 05:19:00
12:53 AM,16.0,12.9,88,30.43,10.0,East,3.5,-,N/A,,Overcast,90,2013-02-22 05:53:00
1:53 AM,16.0,12.0,84,30.40,10.0,Calm,Calm,-,N/A,,Overcast,0,2013-02-22 06:53:00
2:43 AM,16.0,12.9,88,30.38,10.0,WNW,5.8,-,N/A,,Overcast,290,2013-02-22 07:43:00
2:53 AM,16.0,12.9,88,30.41,10.0,WNW,6.9,-,N/A,,Overcast,300,2013-02-22 07:53:00
3:53 AM,16.0,12.9,88,30.44,10.0,NNW,5.8,-,N/A,,Overcast,330,2013-02-22 08:53:00
4:53 AM,16.0,12.0,84,30.44,10.0,Calm,Calm,-,N/A,,Overcast,0,2013-02-22 09:53:00
5:53 AM,15.1,12.0,88,30.42,10.0,East,6.9,-,N/A,,Overcast,90,2013-02-22 10:53:00
6:09 AM,15.1,12.0,88,30.40,10.0,East,6.9,-,N/A,,Overcast,90,2013-02-22 11:09:00
6:53 AM,14.0,10.9,88,30.44,10.0,ESE,6.9,-,N/A,,Overcast,110,2013-02-22 11:53:00
7:25 AM,14.0,10.9,88,30.43,10.0,East,5.8,-,N/A,,Scattered Clouds,90,2013-02-22 12:25:00
7:53 AM,12.9,9.0,84,30.47,10.0,ESE,3.5,-,N/A,,Clear,120,2013-02-22 12:53:00
8:25 AM,16.0,10.9,81,30.42,10.0,ESE,5.8,-,N/A,,Mostly Cloudy,110,2013-02-22 13:25:00
8:53 AM,18.0,10.9,74,30.43,10.0,East,5.8,-,N/A,,Overcast,80,2013-02-22 13:53:00
9:53 AM,18.0,12.9,81,30.41,10.0,ESE,3.5,-,N/A,,Scattered Clouds,110,2013-02-22 14:53:00
10:53 AM,21.0,15.1,78,30.42,10.0,South,5.8,-,N/A,,Clear,190,2013-02-22 15:53:00
11:53 AM,24.1,17.1,75,30.37,10.0,East,6.9,-,N/A,,Clear,100,2013-02-22 16:53:00
12:53 PM,28.9,19.0,67,30.31,10.0,East,8.1,-,N/A,,Clear,100,2013-02-22 17:53:00
1:53 PM,32.0,19.0,59,30.28,10.0,SE,13.8,-,N/A,,Clear,130,2013-02-22 18:53:00
2:53 PM,32.0,19.9,61,30.26,10.0,SE,13.8,-,N/A,,Clear,130,2013-02-22 19:53:00
3:53 PM,32.0,19.9,61,30.25,10.0,ESE,12.7,-,N/A,,Partly Cloudy,110,2013-02-22 20:53:00
4:53 PM,33.1,21.0,61,30.25,10.0,SE,9.2,-,N/A,,Mostly Cloudy,130,2013-02-22 21:53:00
5:53 PM,33.1,21.0,61,30.23,10.0,East,10.4,-,N/A,,Overcast,100,2013-02-22 22:53:00
6:53 PM,33.1,21.9,64,30.22,8.0,ESE,8.1,-,0.00,Snow,Light Snow,110,2013-02-22 23:53:00
7:53 PM,33.1,21.9,64,30.20,10.0,ESE,11.5,-,0.00,,Overcast,110,2013-02-23 00:53:00
8:53 PM,33.1,23.0,66,30.19,10.0,ESE,13.8,-,0.00,,Overcast,120,2013-02-23 01:53:00
9:53 PM,33.1,21.9,64,30.20,10.0,ESE,11.5,-,0.00,,Overcast,120,2013-02-23 02:53:00
10:53 PM,33.1,23.0,66,30.19,10.0,ESE,11.5,-,0.00,,Overcast,120,2013-02-23 03:53:00
11:53 PM,33.1,23.0,66,30.17,10.0,ESE,11.5,-,N/A,,Overcast,120,2013-02-23 04:53:00